This is the latest recevied weather packets stored in our database for station/object RN1M-13. If no packets are shown the sender has not sent any weather packets the latest 10 day(s).
| Time | Temp. | Humidity | Pressure | Rain* | Wind** | Luminosity | Snow |
|---|---|---|---|---|---|---|---|
| 1787809006 | 20° C | 100% | 1032.1 hPa | - | - | - | - |
| 1787808106 | 19.44° C | 100% | 1034.5 hPa | - | - | - | - |
| 1787807206 | 20° C | 100% | 1034.1 hPa | - | - | - | - |
| 1787806306 | 18.89° C | 100% | 1035.7 hPa | - | - | - | - |
| 1787805406 | 18.89° C | 100% | 1035.9 hPa | - | - | - | - |
| 1787804539 | 18.33° C | 100% | 1036.5 hPa | - | - | - | - |
| 1787804506 | 18.33° C | 100% | 1036.5 hPa | - | - | - | - |
| 1787803606 | 18.33° C | 100% | 1036.1 hPa | - | - | - | - |
| 1787802706 | 18.33° C | 100% | 1035.7 hPa | - | - | - | - |
| 1787801805 | 18.33° C | 100% | 1035.5 hPa | - | - | - | - |
| 1787800905 | 18.33° C | 100% | 1036.1 hPa | - | - | - | - |
| 1787800005 | 17.78° C | 100% | 1037.6 hPa | - | - | - | - |
| 1787799107 | 17.22° C | 100% | 1037 hPa | - | - | - | - |
| 1787798209 | 17.22° C | 100% | 1038.7 hPa | - | - | - | - |
| 1787797309 | 17.78° C | 100% | 1037.9 hPa | - | - | - | - |
| 1787796409 | 17.78° C | 100% | 1039.5 hPa | - | - | - | - |
| 1787795509 | 17.22° C | 100% | 1038.7 hPa | - | - | - | - |
| 1787794609 | 17.78° C | 100% | 1038.4 hPa | - | - | - | - |
| 1787793709 | 17.78° C | 100% | 1039 hPa | - | - | - | - |
| 1787792809 | 17.22° C | 100% | 1038.4 hPa | - | - | - | - |
| 1787791909 | 17.78° C | 100% | 1037.5 hPa | - | - | - | - |
| 1787791009 | 17.78° C | 100% | 1037.3 hPa | - | - | - | - |
| 1787790108 | 17.78° C | 100% | 1037.1 hPa | - | - | - | - |
| 1787789209 | 17.78° C | 100% | 1036.5 hPa | - | - | - | - |
| 1787788310 | 17.22° C | 100% | 1034.1 hPa | - | - | - | - |
* Rain since midnight (hover to see other rain measurements)
** Current wind speed in m/s (hover to see current wind gust speed)